Regional Weather Roundup
Issued by NWS

Home | Current Version | Previous Version | Text Only | Print | Product List | Glossary On
Versions: 1 2 3 4 5 6 7 8 9 10 11 12 13 14 15 16 17 18 19 20 21 22 23 24 25 26 27 28 29 30 31 32 33 34 35 36 37 38 39 40 41 42 43 44 45 46 47 48 49 50
000
ASUS42 KTBW 241117
RWRFL
FLORIDA REGIONAL WEATHER ROUNDUP
NATIONAL WEATHER SERVICE TAMPA BAY RUSKIN FL
700 AM EDT FRI MAR 24 2017

NOTE: "FAIR" INDICATES FEW OR NO CLOUDS BELOW 12,000 FEET WITH NO
SIGNIFICANT WEATHER AND/OR OBSTRUCTIONS TO VISIBILITY.

FLZ001>010-012>015-112-114-115-241200-
PANHANDLE FLORIDA

CITY           SKY/WX    TMP DP  RH WIND       PRES   REMARKS
PENSACOLA      CLOUDY    69  60  73 SE17G26   30.27R
PENSACOLA NAS  CLOUDY    68  61  78 SE20G26   30.26R
MILTON NAS     CLOUDY    63  56  78 E7        30.29
CRESTVIEW      CLOUDY    61  54  77 E6        30.32R
DUKE FIELD     CLOUDY    61  54  77 E9        30.29R
VALPARAISO     MOCLDY    63  56  77 E10       30.29R
PANAMA CITY    FAIR      58  54  86 NE7       30.31R
TYNDALL AFB    CLEAR     60  56  87 E9        30.32R
APALACHICOLA   MOCLDY    64  60  87 E10G20    30.31R

STATION/POSITION SKY/WX   TEMP    WIND        PRES    WAVE   SWELL
                          AIR SEA DIR/SP/G            HT/PER HT/PER
                          (F)     (DEG/KT/KT) (MB)    (FT/S) (FT/S)
30.1N   87.6W              69 69  130/ 19/ 23 1023.7R   7/ 7
29.2N   88.2W              72 72  130/ 19/ 25 1022.8R   7/ 7
28.8N   86.0W              70 71              1024.3R   8/ 7
PANAMA CITY BEAC           60 69  100/  8/ 14 1026.4R
TOWER C                    65     110/ 25/ 27 1026.6R
28.5N   84.5W              68 68  110/ 19/ 23 1025.2R   5/ 6

$$
FLZ011-016>038-118-127-128-134-139-239-241200-
NORTH FLORIDA

CITY           SKY/WX    TMP DP  RH WIND       PRES   REMARKS
MARIANNA       CLOUDY    58  54  86 E8        30.34R
TALLAHASSEE    CLEAR     56  54  93 E8        30.36R
PERRY          CLEAR     55  54  95 CALM      30.37R
CROSS CITY     CLEAR     54  54 100 NE3       30.36R
LAKE CITY      FAIR      52  52 100 NE5       30.37R
GAINESVILLE    CLEAR     54  52  93 N3        30.37R
WILLISTON      CLEAR     57  55  94 N6        30.36R
PALATKA        MOCLDY    48  48 100 CALM      30.37R
MAYPORT NAS    PTCLDY    65  57  75 E12       30.38R
JACKSONVILLE   CLEAR     50  50 100 CALM      30.39R
JAX NAS        MOCLDY    61  56  83 NE6       30.39R
ST AUGUSTINE   CLOUDY    66  58  75 E13       30.38R
PALM COAST     CLOUDY    63  55  77 E6        30.36

STATION/POSITION SKY/WX   TEMP    WIND        PRES    WAVE   SWELL
                          AIR SEA DIR/SP/G            HT/PER HT/PER
                          (F)     (DEG/KT/KT) (MB)    (FT/S) (FT/S)
SHELL POINT      NOT AVBL
KEATON BEACH               55      60/  7/  9 1027.5R
CEDAR KEY                  60      60/ 10/ 11 1027.1R
FERNANDINA                 61 64   50/  1/  3 1029.8R
30.7N   81.3W                 63                N/A     6/ 7   2/11
MAYPORT                    65 64  100/  7/ 11 1029.1R
31.4N   80.9W              64 62  100/ 10/ 12 1029.5R   5/ 7   5/ 7
ST AUGUSTINE               67 65  100/ 18/ 20 1029.2R

$$
FLZ040-043>046-052-053-057-058-063-144-241200-
INTERIOR CENTRAL FLORIDA

CITY           SKY/WX    TMP DP  RH WIND       PRES   REMARKS
OCALA          CLEAR     54  48  82 CALM      30.35R
THE VILLAGES     N/A     59  55  88 CALM      30.25R
LEESBURG       MOCLDY    58  54  86 NE7       30.35R
SANFORD        CLOUDY    60  53  77 NE3       30.34R
ORLANDO EXEC   MOCLDY    63  56  78 NE6       30.33R
ORLANDO INTL   PTCLDY    64  55  72 NE8       30.33R
KISSIMMEE      PTCLDY    63  56  78 NE3       30.34R
WINTER HAVEN   PTCLDY    61  55  81 NE9       30.32R
LAKELAND       CLEAR     61  57  88 NE6       30.31R
BARTOW         FAIR      59  57  94 NE8       30.31R
OKEECHOBEE     PTCLDY   N/A N/A N/A NE6       30.29R

$$
FLZ041-047-054-059-064-141-147-241200-
EAST CENTRAL FLORIDA

CITY           SKY/WX    TMP DP  RH WIND       PRES   REMARKS
ORMOND BEACH   PTCLDY    66  54  63 E6        30.35
DAYTONA BEACH  PTCLDY    66  53  63 E10       30.35R
DELAND         CLEAR     57  54  88 CALM      30.34R
NEW SMYRNA BEA PTCLDY    64  54  68 E12       30.35
JFK SPACE CTR  CLEAR     67  52  58 E9        30.32R
TITUSVILLE     MOCLDY    66  52  59 E13       30.32
CAPE CANAVERAL CLOUDY    68  54  60 E14G21    30.31R
PATRICK AFB    CLEAR     68  53  59 E12       30.31R
MELBOURNE      CLEAR     69  55  60 E12       30.31R
VERO BEACH     CLOUDY    69  58  67 E12       30.30R
FT PIERCE      MOCLDY    68  57  68 E12       30.29R
STUART         MOCLDY    73  59  60 E15G21    30.28R

STATION/POSITION SKY/WX   TEMP    WIND        PRES    WAVE   SWELL
                          AIR SEA DIR/SP/G            HT/PER HT/PER
                          (F)     (DEG/KT/KT) (MB)    (FT/S) (FT/S)
TRIDENT PIER               68 70   70/ 11/ 19 1027.9R
28.4N   80.5W                 70                N/A     5/ 8   2/11
27.5N   80.2W                 70                N/A     7/11   3/11

$$
FLZ050-056-061-142-242-148-248-149-249-151-251-155-255-
160-260-241200-
WEST CENTRAL FLORIDA

CITY           SKY/WX    TMP DP  RH WIND       PRES   REMARKS
CRYSTAL RIVER  FAIR      54  52  94 CALM      30.34R
INVERNESS      MOCLDY    54  54 100 NE3       30.35R
BROOKSVILLE    CLEAR     58  55  90 NE6       30.33R
CLEARWATER AIR FAIR      61  57  88 E6        30.30R
ST PETE CLEARW CLEAR     65  58  78 E9        30.30R
TAMPA INTL     CLEAR     63  56  78 NE6       30.31R
TAMPA EXEC     CLEAR     61  55  82 CALM      30.31R
PLANT CITY     CLEAR     61  57  88 NE3       30.33R
MACDILL AFB    CLEAR     61  60  99 E10       30.30R
PETER O KNIGHT MOCLDY    63  61  94 NE8       30.31R
ST PETERSBURG  CLEAR     65  60  84 E15       30.29R
SARASOTA       CLEAR     61  58  90 NE7       30.27R
VENICE           N/A     61  61 100 NE9       30.27R

STATION/POSITION SKY/WX   TEMP    WIND        PRES    WAVE   SWELL
                          AIR SEA DIR/SP/G            HT/PER HT/PER
                          (F)     (DEG/KT/KT) (MB)    (FT/S) (FT/S)
27.3N   84.2W                 71                N/A     5/ 6
CLEARWATER BEACH NOT AVBL
MIDDLE TAMPA BAY           64      80/ 12/ 15 1026.0R
VENICE                     63 68   50/  8/ 10 1024.2R

$$
FLZ066-069-070-075>078-162-262-165-265-241200-
SOUTHWEST FLORIDA AND KEYS

CITY           SKY/WX    TMP DP  RH WIND       PRES   REMARKS
PUNTA GORDA    CLEAR     59  58  96 NE7       30.28R
FT MYERS       CLEAR     64  61  90 NE6       30.25R
SOUTHWEST INTL CLEAR     63  59  87 NE6       30.25R
NAPLES         CLEAR     64  62  93 NE8       30.23R
IMMOKALEE      MOCLDY    61  59  94 NE6       30.24R
MARATHON       MOCLDY    71  67  87 E12       30.18R
KEY WEST NAS   PTCLDY    71  65  81 NE10      30.18R
KEY WEST INTL  CLEAR     72  65  78 NE10      30.18R

STATION/POSITION SKY/WX   TEMP    WIND        PRES    WAVE   SWELL
                          AIR SEA DIR/SP/G            HT/PER HT/PER
                          (F)     (DEG/KT/KT) (MB)    (FT/S) (FT/S)
NAPLES                        70              1023.6R
26.0N   85.6W              72 73   90/ 19/ 23 1022.3F   7/ 7
DRY TORTUGAS               71      80/ 20/ 22 1022.0R
SAND KEY                   73      80/ 19/ 21 1022.0R
LONG KEY                   70 74   90/ 19/ 22 1022.0F

$$
FLZ067-068-071>074-168-172>174-241200-
SOUTHEAST FLORIDA

CITY           SKY/WX    TMP DP  RH WIND       PRES   REMARKS
W PALM BEACH   MOCLDY    70  58  65 E16G24    30.25R
BOCA RATON     PTCLDY    72  61  68 E15       30.24
FT LAUDER-EXEC PTCLDY    72  59  63 E17G28    30.22S
FT LAUDERDALE  MOCLDY    70  62  76 E17G25    30.21S
POMPANO BEACH  MOCLDY    71  61  70 E20G25    30.23R
PEMBROKE PINES CLOUDY    70  63  78 NE15G23   30.24R
OPA LOCKA      MOCLDY   N/A N/A N/A NE13G25   30.22R
MIAMI          PTCLDY    71  62  73 E10       30.21R
WEST KENDALL   PTCLDY    71  63  75 E14       30.21R
HOMESTEAD      PTCLDY    71  65  80 NE20      30.19R

STATION/POSITION SKY/WX   TEMP    WIND        PRES    WAVE   SWELL
                          AIR SEA DIR/SP/G            HT/PER HT/PER
                          (F)     (DEG/KT/KT) (MB)    (FT/S) (FT/S)
PORT EVERGLADES            72      60/ 21/ 26 1023.0R
VIRGINIA KEY               73      80/ 21/ 28 1023.0R
LAKE WORTH                         70/ 20/ 24   N/A
FOWEY ROCKS                73 74   70/ 28/ 30 1022.8S
SETTLEMENT POINT           69      70/ 20/ 22 1025.0R

$$




USA.gov is the U.S. government's official web portal to all federal, state and local government web resources and services.